Tehachapi, CA

6:14 AM PST on December 08, 2019 (GMT -0800)
Tehachapi Municipal

Weather History for KTSP - October, 2019

Change the Weather History Date:

Friday, October 11, 2019

  Actual Average Record
Temperature  
Mean Temperature 50 °F -  
Max Temperature 64 °F 73 °F 82 °F (2015)
Min Temperature 35 °F 43 °F 35 °F (2013)
Degree Days  
Heating Degree Days 14    
Moisture  
Dew Point -6 °F    
Average Humidity 9    
Maximum Humidity 16    
Minimum Humidity 5    
Precipitation  
Precipitation 0.00 in - - ()
Sea Level Pressure  
Sea Level Pressure 30.12 in    
Wind  
Wind Speed 16 mph ()    
Max Wind Speed 26 mph    
Max Gust Speed 38 mph    
Visibility 9.4 miles    
Events      
Averages and records for this station are not official NWS values.
T = Trace of Precipitation, MM = Missing Value Source: Averaged Metar Reports

Daily Weather History Graph

Daily Weather History Graph

Search for Another Location

Airport or City:

Astronomy

Oct. 11, 2019 Rise Set
Actual Time 6:56 AM PDT 6:24 PM PDT
Civil Twilight 6:30 AM PDT 6:49 PM PDT
Nautical Twilight 6:01 AM PDT 7:18 PM PDT
Astronomical Twilight 5:32 AM PDT 7:48 PM PDT
Moon 5:48 PM PDT (10/11) 4:49 AM PDT (10/11)
Length of Visible Light 12h 18m
Length of Day
11h 27m
Waxing Gibbous, 96% of the Moon is Illuminated
Oct 11
Waxing Gibbous
Oct 13
Full
Oct 21
Last Quarter
Oct 27
New
Nov 4
First Quarter

Hourly Weather History & Observations

Time (PDT) Temp. Windchill Dew Point Humidity Pressure Visibility Wind Dir Wind Speed Gust Speed Precip Events Conditions
12:15 AM 50.0 °F - -7.6 °F 9% 30.15 in 10.0 mi SE 19.6 mph 26.5 mph N/A   Scattered Clouds
12:35 AM 48.2 °F - -7.6 °F 10% 30.15 in 10.0 mi SE 17.3 mph 24.2 mph N/A   Partly Cloudy
12:55 AM 48.2 °F - -7.6 °F 10% 30.14 in 10.0 mi SE 19.6 mph 26.5 mph N/A   Partly Cloudy
1:15 AM 50.0 °F - -7.6 °F 9% 30.14 in 10.0 mi SE 17.3 mph 27.6 mph N/A   Partly Cloudy
1:35 AM 50.0 °F - -7.6 °F 9% 30.15 in 10.0 mi SE 18.4 mph 24.2 mph N/A   Partly Cloudy
1:55 AM 50.0 °F - -5.8 °F 10% 30.15 in 10.0 mi SE 21.9 mph 26.5 mph N/A   Partly Cloudy
2:15 AM 50.0 °F - -5.8 °F 10% 30.15 in 10.0 mi SE 20.7 mph 26.5 mph N/A   Partly Cloudy
2:35 AM 48.2 °F - -5.8 °F 10% 30.15 in 10.0 mi SE 19.6 mph 27.6 mph N/A   Partly Cloudy
2:55 AM 48.2 °F - -7.6 °F 10% 30.14 in 10.0 mi ESE 15.0 mph 24.2 mph N/A   Clear
3:15 AM 48.2 °F - -5.8 °F 10% 30.14 in 10.0 mi ESE 17.3 mph 23.0 mph N/A   Partly Cloudy
3:35 AM 48.2 °F - -5.8 °F 10% 30.13 in 10.0 mi ESE 13.8 mph 21.9 mph N/A   Partly Cloudy
3:55 AM 48.2 °F - -5.8 °F 10% 30.14 in 10.0 mi ESE 13.8 mph 21.9 mph N/A   Clear
4:15 AM 48.2 °F - -5.8 °F 10% 30.13 in 10.0 mi ESE 15.0 mph 23.0 mph N/A   Partly Cloudy
4:35 AM 48.2 °F - -5.8 °F 10% 30.13 in 10.0 mi SE 18.4 mph 28.8 mph N/A   Partly Cloudy
4:55 AM 48.2 °F - -7.6 °F 10% 30.13 in 10.0 mi ESE 16.1 mph 26.5 mph N/A   Partly Cloudy
5:15 AM 48.2 °F - -5.8 °F 10% 30.13 in 10.0 mi SE 19.6 mph 26.5 mph N/A   Partly Cloudy
5:35 AM 48.2 °F - -5.8 °F 10% 30.13 in 10.0 mi SE 19.6 mph 27.6 mph N/A   Partly Cloudy
5:55 AM 48.2 °F - -4.0 °F 11% 30.14 in 10.0 mi SE 23.0 mph 28.8 mph N/A   Partly Cloudy
6:35 AM 48.2 °F - -4.0 °F 11% 30.14 in 10.0 mi SE 17.3 mph 25.3 mph N/A   Partly Cloudy
6:55 AM 48.2 °F - -4.0 °F 11% 30.15 in 10.0 mi SE 18.4 mph 27.6 mph N/A   Clear
7:15 AM 46.4 °F 39.8 °F -4.0 °F 12% 30.14 in 10.0 mi SE 16.1 mph 24.2 mph N/A   Clear
7:35 AM 48.2 °F - -4.0 °F 11% 30.15 in 10.0 mi SE 20.7 mph 25.3 mph N/A   Clear
7:55 AM 50.0 °F - -2.2 °F 12% 30.15 in 10.0 mi SE 18.4 mph 27.6 mph N/A   Clear
8:15 AM 50.0 °F - -2.2 °F 12% 30.16 in 10.0 mi ESE 20.7 mph 26.5 mph N/A   Clear
8:35 AM 53.6 °F - -2.2 °F 10% 30.16 in 10.0 mi ESE 19.6 mph 29.9 mph N/A   Clear
8:55 AM 53.6 °F - -2.2 °F 10% 30.17 in 10.0 mi SE 24.2 mph 31.1 mph N/A   Clear
9:15 AM 53.6 °F - -2.2 °F 10% 30.17 in 10.0 mi SE 20.7 mph 32.2 mph N/A   Clear
9:35 AM 55.4 °F - -2.2 °F 9% 30.17 in 9.0 mi ESE 24.2 mph 32.2 mph N/A   Clear
9:55 AM 55.4 °F - -2.2 °F 9% 30.17 in 10.0 mi ESE 23.0 mph 34.5 mph N/A   Clear
10:15 AM 55.4 °F - -2.2 °F 9% 30.17 in 9.0 mi SE 23.0 mph 31.1 mph N/A   Clear
10:35 AM 57.2 °F - -0.4 °F 10% 30.17 in 10.0 mi ESE 20.7 mph 34.5 mph N/A   Clear
10:55 AM 57.2 °F - -2.2 °F 9% 30.16 in 9.0 mi ESE 24.2 mph 32.2 mph N/A   Clear
11:15 AM 57.2 °F - -0.4 °F 10% 30.16 in 9.0 mi SE 26.5 mph 38.0 mph N/A   Clear
11:35 AM 57.2 °F - -0.4 °F 10% 30.16 in 8.0 mi SE 20.7 mph 29.9 mph N/A   Clear
11:55 AM 59.0 °F - -0.4 °F 9% 30.16 in 9.0 mi ESE 21.9 mph 32.2 mph N/A   Clear
12:15 PM 59.0 °F - -0.4 °F 9% 30.15 in 8.0 mi SE 20.7 mph 27.6 mph N/A   Clear
12:35 PM 60.8 °F - -2.2 °F 8% 30.15 in 7.0 mi SE 26.5 mph 31.1 mph N/A   Clear
12:55 PM 62.6 °F - -2.2 °F 7% 30.14 in 7.0 mi ESE 21.9 mph 31.1 mph N/A   Clear
1:15 PM 62.6 °F - -2.2 °F 7% 30.13 in 7.0 mi ESE 23.0 mph 28.8 mph N/A   Clear
1:35 PM 62.6 °F - -2.2 °F 7% 30.13 in 7.0 mi ESE 17.3 mph 28.8 mph N/A   Clear
1:55 PM 62.6 °F - -2.2 °F 7% 30.12 in 9.0 mi SE 20.7 mph 28.8 mph N/A   Clear
2:15 PM 64.4 °F - -2.2 °F 7% 30.11 in 5.0 mi SE 19.6 mph 26.5 mph N/A   Haze
2:35 PM 64.4 °F - -4.0 °F 6% 30.11 in 4.0 mi ESE 18.4 mph 27.6 mph N/A   Haze
2:55 PM 64.4 °F - -5.8 °F 6% 30.10 in 7.0 mi ESE 18.4 mph 24.2 mph N/A   Clear
3:15 PM 64.4 °F - -4.0 °F 6% 30.10 in 7.0 mi SE 18.4 mph 26.5 mph N/A   Clear
3:35 PM 64.4 °F - -7.6 °F 5% 30.09 in 9.0 mi ESE 15.0 mph 23.0 mph N/A   Clear
3:55 PM 64.4 °F - -7.6 °F 5% 30.09 in 9.0 mi SE 19.6 mph 25.3 mph N/A   Clear
4:15 PM 64.4 °F - -7.6 °F 5% 30.08 in 10.0 mi SE 11.5 mph 21.9 mph N/A   Clear
4:35 PM 64.4 °F - -9.4 °F 5% 30.08 in 10.0 mi ESE 13.8 mph 20.7 mph N/A   Clear
4:55 PM 64.4 °F - -11.2 °F 5% 30.08 in 10.0 mi ESE 16.1 mph 19.6 mph N/A   Clear
5:15 PM 62.6 °F - -9.4 °F 5% 30.07 in 10.0 mi ESE 10.4 mph 18.4 mph N/A   Clear
5:35 PM 62.6 °F - -9.4 °F 5% 30.07 in 10.0 mi ESE 12.7 mph 19.6 mph N/A   Clear
5:55 PM 59.0 °F - -7.6 °F 6% 30.07 in 10.0 mi ESE 12.7 mph - N/A   Clear
6:35 PM 51.8 °F - -7.6 °F 8% 30.07 in 10.0 mi ESE 10.4 mph - N/A   Clear
6:55 PM 51.8 °F - -7.6 °F 8% 30.07 in 10.0 mi East 6.9 mph - N/A   Clear
7:15 PM 50.0 °F - -9.4 °F 8% 30.07 in 10.0 mi East 10.4 mph - N/A   Clear
7:35 PM 48.2 °F - -9.4 °F 9% 30.08 in 10.0 mi ESE 10.4 mph - N/A   Clear
7:55 PM 48.2 °F - -11.2 °F 8% 30.07 in 10.0 mi ESE 10.4 mph - N/A   Partly Cloudy
8:15 PM 50.0 °F - -9.4 °F 8% 30.08 in 10.0 mi ESE 10.4 mph - N/A   Partly Cloudy
8:35 PM 46.4 °F 41.9 °F -9.4 °F 9% 30.08 in 10.0 mi ESE 9.2 mph - N/A   Partly Cloudy
8:55 PM 44.6 °F 40.2 °F -9.4 °F 10% 30.08 in 10.0 mi East 8.1 mph - N/A   Partly Cloudy
9:15 PM 48.2 °F - -9.4 °F 9% 30.09 in 10.0 mi ESE 6.9 mph - N/A   Clear
9:35 PM 46.4 °F 42.9 °F -9.4 °F 9% 30.09 in 10.0 mi East 6.9 mph - N/A   Clear
9:55 PM 46.4 °F 42.4 °F -9.4 °F 9% 30.09 in 10.0 mi East 8.1 mph - N/A   Partly Cloudy
10:15 PM 44.6 °F 40.2 °F -9.4 °F 10% 30.09 in 10.0 mi ESE 8.1 mph - N/A   Partly Cloudy
10:35 PM 42.8 °F 38.6 °F -11.2 °F 10% 30.09 in 10.0 mi East 6.9 mph - N/A   Scattered Clouds
10:55 PM 39.2 °F 35.9 °F -7.6 °F 14% 30.09 in 10.0 mi ESE 4.6 mph - N/A   Scattered Clouds
11:15 PM 37.4 °F 32.1 °F -9.4 °F 13% 30.09 in 10.0 mi ESE 6.9 mph - N/A   Scattered Clouds
11:35 PM 37.4 °F 33.8 °F -9.4 °F 13% 30.08 in 10.0 mi ESE 4.6 mph - N/A   Scattered Clouds
11:55 PM 35.6 °F 32.8 °F -7.6 °F 16% 30.08 in 10.0 mi ESE 3.5 mph - N/A   Mostly Cloudy